Weather History for Homer, AK

Change the Weather History Date:

Wednesday, January 1, 2014

  Actual Average Record
Temperature  
Mean Temperature 39 °F -  
Max Temperature 41 °F 28 °F 46 °F (1942)
Min Temperature 37 °F 18 °F -14 °F (1965)
Degree Days  
Heating Degree Days 26    
Moisture  
Dew Point 32 °F    
Average Humidity 76    
Maximum Humidity 83    
Minimum Humidity 65    
Precipitation  
Precipitation 0.29 in - - ()
Sea Level Pressure  
Sea Level Pressure 29.17 in    
Wind  
Wind Speed 12 mph (SE)    
Max Wind Speed 17 mph    
Max Gust Speed 26 mph    
Visibility 9 miles    
Events Rain    
Averages and records for this station are not official NWS values.
T = Trace of Precipitation, MM = Missing Value Source: NWS Daily Summary

Daily Weather History Graph

Daily Weather History Graph

Search for Another Location

Airport:

Trip Planner

Search our weather history database for the weather conditions in past years. The results will help you decide how hot, cold, wet, or windy it might be!

Date:

Astronomy

Jan. 01, 2014 Rise Set
Actual Time 10:04 AM AKST 4:14 PM AKST
Civil Twilight 9:09 AM AKST 5:10 PM AKST
Nautical Twilight 8:13 AM AKST 6:05 PM AKST
Astronomical Twilight 7:23 AM AKST 6:56 PM AKST
Moon 9:41 AM AKST (1/1) 5:38 PM AKST (1/1)
Length of Visible Light 8h 01m
Length of Day
6h 10m
Waxing Crescent, 0% of the Moon is Illuminated
Jan 1
Waxing Crescent
Jan 7
First Quarter
Jan 15
Full
Jan 23
Last Quarter
Jan 30
New

Hourly Weather History & Observations

Time (AKST) Temp. Windchill Dew Point Humidity Pressure Visibility Wind Dir Wind Speed Gust Speed Precip Events Conditions
12:11 AM 39.2 °F 30.8 °F 30.2 °F 70% 29.10 in 7.0 mi ENE 15.0 mph - 0.01 in Rain Light Rain
12:36 AM 39.2 °F 31.2 °F 32.0 °F 75% 29.09 in 10.0 mi East 13.8 mph - 0.02 in Rain Light Rain
12:48 AM 41.0 °F 32.5 °F 32.0 °F 70% 29.09 in 6.0 mi East 17.3 mph 26.5 mph 0.02 in Rain Rain
12:53 AM 41.0 °F 34.3 °F 33.1 °F 73% 29.08 in 6.0 mi East 11.5 mph 26.5 mph 0.03 in Rain Rain
1:22 AM 39.2 °F 31.6 °F 32.0 °F 75% 29.06 in 10.0 mi ENE 12.7 mph - 0.01 in Rain Light Rain
1:53 AM 41.0 °F 33.1 °F 33.1 °F 73% 29.06 in 8.0 mi East 15.0 mph - 0.01 in Rain Light Rain
2:36 AM 41.0 °F 33.9 °F 33.8 °F 76% 29.05 in 8.0 mi East 12.7 mph 25.3 mph 0.02 in Rain Rain
3:26 AM 41.0 °F 35.2 °F 33.8 °F 76% 29.04 in 10.0 mi East 9.2 mph - 0.03 in   Overcast
3:53 AM 39.9 °F 32.1 °F 33.1 °F 77% 29.05 in 6.0 mi NE 13.8 mph - 0.04 in Rain Rain
4:04 AM 41.0 °F 33.9 °F 33.8 °F 76% 29.04 in 8.0 mi East 12.7 mph 21.9 mph 0.01 in Rain Light Rain
4:53 AM 39.9 °F 33.4 °F 32.0 °F 73% 29.04 in 4.0 mi ESE 10.4 mph - 0.03 in Rain Heavy Rain
5:53 AM 39.9 °F 32.5 °F 32.0 °F 73% 29.03 in 10.0 mi East 12.7 mph - 0.04 in Rain Light Rain
6:16 AM 39.2 °F 31.2 °F 32.0 °F 75% 29.02 in 6.0 mi East 13.8 mph 19.6 mph 0.02 in Rain Rain
6:31 AM 39.2 °F 32.0 °F 32.0 °F 75% 29.02 in 10.0 mi ENE 11.5 mph - 0.03 in Rain Light Rain
6:53 AM 37.9 °F 30.9 °F 33.1 °F 83% 29.02 in 10.0 mi NE 10.4 mph - 0.03 in Rain Light Rain
7:53 AM 39.9 °F 31.4 °F 32.0 °F 73% 29.01 in 10.0 mi East 16.1 mph - 0.01 in Rain Light Rain
8:12 AM 39.2 °F 31.2 °F 32.0 °F 75% 29.01 in 10.0 mi East 13.8 mph - 0.01 in Rain Light Rain
8:39 AM 39.2 °F 31.6 °F 32.0 °F 75% 29.01 in 10.0 mi ENE 12.7 mph - 0.01 in Rain Light Rain
8:46 AM 39.2 °F 31.2 °F 32.0 °F 75% 29.01 in 10.0 mi ENE 13.8 mph - 0.02 in Rain Light Rain
8:53 AM 39.0 °F 31.8 °F 32.0 °F 76% 29.01 in 9.0 mi ENE 11.5 mph - 0.02 in Rain Rain
9:53 AM 39.9 °F 32.5 °F 33.1 °F 77% 29.03 in 10.0 mi East 12.7 mph - 0.02 in Rain Light Rain
10:23 AM 39.2 °F 32.5 °F 33.8 °F 81% 29.04 in 10.0 mi ENE 10.4 mph - 0.01 in Rain Light Rain
10:53 AM 39.9 °F 36.7 °F 33.1 °F 77% 29.06 in 8.0 mi East 4.6 mph - 0.01 in Rain Light Rain
11:38 AM 39.2 °F 35.9 °F 33.8 °F 81% 29.08 in 10.0 mi East 4.6 mph - 0.02 in Rain Light Rain
11:53 AM 39.0 °F 35.7 °F 33.1 °F 79% 29.08 in 10.0 mi East 4.6 mph - 0.02 in   Overcast
12:53 PM 39.0 °F - 34.0 °F 82% 29.12 in 10.0 mi Calm Calm - 0.01 in   Overcast
1:53 PM 41.0 °F 35.8 °F 32.0 °F 70% 29.14 in 10.0 mi South 8.1 mph - 0.00 in Rain Light Rain
2:53 PM 41.0 °F 34.7 °F 33.1 °F 73% 29.18 in 10.0 mi SW 10.4 mph - 0.00 in   Overcast
3:17 PM 39.2 °F 32.5 °F 33.8 °F 81% 29.19 in 10.0 mi WSW 10.4 mph - 0.00 in Rain Light Rain
3:53 PM 37.0 °F 27.4 °F 32.0 °F 82% 29.22 in 7.0 mi WSW 17.3 mph 25.3 mph 0.01 in Rain Rain
4:20 PM 37.4 °F 28.5 °F 32.0 °F 81% 29.24 in 7.0 mi WSW 15.0 mph - 0.01 in Rain Light Rain
4:53 PM 37.0 °F 32.4 °F 32.0 °F 82% 29.27 in 10.0 mi West 5.8 mph - 0.01 in   Overcast
5:00 PM 37.4 °F 31.4 °F 32.0 °F 81% 29.28 in 10.0 mi WSW 8.1 mph - N/A   Overcast
5:30 PM 37.4 °F 28.2 °F 30.2 °F 75% 29.30 in 10.0 mi SW 16.1 mph - 0.00 in   Overcast
5:53 PM 37.0 °F 28.1 °F 30.9 °F 79% 29.31 in 10.0 mi SW 15.0 mph - 0.00 in Rain Light Rain
6:40 PM 37.4 °F 29.3 °F 30.2 °F 75% 29.34 in 10.0 mi SSW 12.7 mph - 0.00 in Rain Light Rain
6:53 PM 37.0 °F 27.7 °F 30.0 °F 76% 29.36 in 10.0 mi SW 16.1 mph 19.6 mph 0.00 in   Overcast
7:53 PM 37.0 °F 31.6 °F 30.0 °F 76% 29.38 in 10.0 mi WSW 6.9 mph - N/A   Overcast
8:00 PM 37.4 °F 31.4 °F 30.2 °F 75% 29.38 in 10.0 mi SW 8.1 mph - N/A   Overcast
8:07 PM 37.4 °F 30.8 °F 30.2 °F 75% 29.39 in 10.0 mi WSW 9.2 mph - 0.00 in Rain Light Rain
8:35 PM 37.4 °F 31.4 °F 30.2 °F 75% 29.40 in 10.0 mi WSW 8.1 mph - 0.00 in Rain Light Rain
8:53 PM 37.0 °F 30.4 °F 30.0 °F 76% 29.42 in 10.0 mi SW 9.2 mph - 0.00 in Rain Light Rain
9:53 PM 37.0 °F 29.8 °F 28.9 °F 73% 29.45 in 10.0 mi SW 10.4 mph - 0.00 in   Overcast
10:53 PM 37.9 °F 30.9 °F 27.0 °F 65% 29.49 in 10.0 mi WSW 10.4 mph - N/A   Overcast
11:53 PM 37.9 °F 31.5 °F 27.0 °F 65% 29.53 in 10.0 mi WSW 9.2 mph - N/A   Overcast